Sd416 Nippon — SKPF — position and weather

sailwx.info

Track history (hours):
 
Tides and Currents Weather Stations Pressure Air Temp Water Temp Dewpoint Dewpoint Depression Visibility Wind Speed Wind Dir Waves Ship Positions

Sd416 Nippon

Last reported at 2014-Oct-29 21:08 UTC. Time now 2014-Oct-31 09:10 UTC.
Position N 58°40' E 010°21'.

Length 17 m; draft 2.5 m.

Type: Fishing. MMSI: 266163000.

Date/timePositionNaut miles runAvg speedWind from/ knotsBaromVisibWave heightAir tempDewpointWater temp
2014-Oct-29 21:08N 58°40' E 010°21'1 1.6
2014-Oct-29 20:33N 58°39' E 010°22'2 1.5
2014-Oct-29 19:29N 58°38' E 010°24'1 1.5
2014-Oct-29 18:33N 58°37' E 010°25'1 1.4
2014-Oct-29 17:33N 58°36' E 010°26'1 1.5
2014-Oct-29 16:33N 58°34' E 010°28'2 1.5
2014-Oct-29 15:33N 58°33' E 010°28'1 1.4
2014-Oct-29 14:33N 58°32' E 010°30'2 1.6
2014-Oct-29 13:33N 58°30' E 010°31'2 2.1
2014-Oct-29 12:33N 58°28' E 010°32'5 5.5
2014-Oct-29 11:33N 58°32' E 010°39'7 7.3
2014-Oct-29 10:33N 58°38' E 010°49'9 6.5
2014-Oct-29 09:09N 58°45' E 011°00'  
2014-Oct-21 16:32N 58°57' E 011°04'11 5.4
2014-Oct-21 14:29N 58°51' E 010°46'3 1.0
2014-Oct-21 12:04N 58°50' E 010°42'2 1.1
2014-Oct-21 10:33N 58°51' E 010°40'1 1.2
2014-Oct-21 09:33N 58°52' E 010°39'1 1.1
2014-Oct-21 08:33N 58°53' E 010°41'2 1.6
2014-Oct-21 07:31N 58°51' E 010°43'2 1.6
2014-Oct-21 06:31N 58°50' E 010°43'2 1.6
2014-Oct-21 05:25N 58°48' E 010°43'1 1.5
2014-Oct-21 04:33N 58°47' E 010°44'2 0.6
2014-Oct-21 01:28N 58°48' E 010°43'1 1.2
2014-Oct-21 00:30N 58°49' E 010°43'1 1.1
2014-Oct-20 23:33N 58°50' E 010°44'1 1.3
2014-Oct-20 22:33N 58°50' E 010°47'1 1.2
2014-Oct-20 21:33N 58°52' E 010°48'1 1.3
2014-Oct-20 20:33N 58°53' E 010°49'1 0.9
2014-Oct-20 19:33N 58°54' E 010°49'0 0.5
2014-Oct-20 18:33N 58°53' E 010°49'3 2.9
2014-Oct-20 17:33N 58°54' E 010°54'7 6.9
2014-Oct-20 16:28N 58°56' E 011°08'  
Track history (hours):
 
Tides and Currents Weather Stations Pressure Air Temp Water Temp Dewpoint Dewpoint Depression Visibility Wind Speed Wind Dir Waves Ship Positions

Sd416 Nippon

Last reported at 2014-Oct-29 21:08 UTC. Time now 2014-Oct-31 09:10 UTC.
Position N 58°40' E 010°21'.

Length 17 m; draft 2.5 m.

Type: Fishing. MMSI: 266163000.

Date/timePositionNaut miles runAvg speedWind from/ knotsBaromVisibWave heightAir tempDewpointWater temp
2014-Oct-29 21:08N 58°40' E 010°21'1 1.6
2014-Oct-29 20:33N 58°39' E 010°22'2 1.5
2014-Oct-29 19:29N 58°38' E 010°24'1 1.5
2014-Oct-29 18:33N 58°37' E 010°25'1 1.4
2014-Oct-29 17:33N 58°36' E 010°26'1 1.5
2014-Oct-29 16:33N 58°34' E 010°28'2 1.5
2014-Oct-29 15:33N 58°33' E 010°28'1 1.4
2014-Oct-29 14:33N 58°32' E 010°30'2 1.6
2014-Oct-29 13:33N 58°30' E 010°31'2 2.1
2014-Oct-29 12:33N 58°28' E 010°32'5 5.5
2014-Oct-29 11:33N 58°32' E 010°39'7 7.3
2014-Oct-29 10:33N 58°38' E 010°49'9 6.5
2014-Oct-29 09:09N 58°45' E 011°00'  
2014-Oct-21 16:32N 58°57' E 011°04'11 5.4
2014-Oct-21 14:29N 58°51' E 010°46'3 1.0
2014-Oct-21 12:04N 58°50' E 010°42'2 1.1
2014-Oct-21 10:33N 58°51' E 010°40'1 1.2
2014-Oct-21 09:33N 58°52' E 010°39'1 1.1
2014-Oct-21 08:33N 58°53' E 010°41'2 1.6
2014-Oct-21 07:31N 58°51' E 010°43'2 1.6
2014-Oct-21 06:31N 58°50' E 010°43'2 1.6
2014-Oct-21 05:25N 58°48' E 010°43'1 1.5
2014-Oct-21 04:33N 58°47' E 010°44'2 0.6
2014-Oct-21 01:28N 58°48' E 010°43'1 1.2
2014-Oct-21 00:30N 58°49' E 010°43'1 1.1
2014-Oct-20 23:33N 58°50' E 010°44'1 1.3
2014-Oct-20 22:33N 58°50' E 010°47'1 1.2
2014-Oct-20 21:33N 58°52' E 010°48'1 1.3
2014-Oct-20 20:33N 58°53' E 010°49'1 0.9
2014-Oct-20 19:33N 58°54' E 010°49'0 0.5
2014-Oct-20 18:33N 58°53' E 010°49'3 2.9
2014-Oct-20 17:33N 58°54' E 010°54'7 6.9
2014-Oct-20 16:28N 58°56' E 011°08'  

Dump ship's entire track history